Location: Vihti�l�
(61.3833°N, 23.0667°E)
Time: 04:07:10
(UTC+00:00)

USA 229 - Pass Details

Date: 29 November 2020
Orbit: 965 x 1247 km, 63.4° (Epoch: 16 January)

Event Time Altitude Azimuth Distance (km) Brightness Sun altitude
Exits shadow 05:42:27 11° 296° (WNW) 2,888 5.3 -9.1°
Maximum altitude 05:49:14 64° 218° (SW) 1,268 4.1 -8.4°
Drops below altitude 10° 05:56:39 10° 139° (SE) 3,144 7.6 -7.7°
Sets 05:59:29 0° 137° (SE) 4,134 8.6 -7.4°
